THORAD AGENA D DEB, 5183

Orbit data source: Space-Track

THORAD AGENA D DEB, 5183 is space debris in SSO originally from a launch on Wed, 08 Apr 1970 UTC launched from the Air Force Western Test Range (AFWTR). Debris objects in space refer to the collection of defunct objects orbiting the Earth. Examples of debris include non-operational satellites, rocket bodies, and fragments generated from explosions, collisions, or faulty payload assembly.

Loading next visibility...
Identifier
5183, 1970-025JZ
Orbit
SSO
Country
Flag of USUS
Related business
Manufacturer
Unknown
Mission
Spacecraft
Bus & Motor
Unknown
Mass
Unknown
Launch date (UTC)
1970-04-08 (56 years ago)
Launch vehicle
Unknown
Launch site
Air Force Western Test Range (AFWTR)
Object type
Payload
Rocket body
Debris
Shape & HBR
Unknown shape, 0.1 m
Radar Cross Section
Small (<0.1 m²)

Expand to show TLE details & history
Last TLE update: 19 hours ago

TLE from 19 hours ago
0 THORAD AGENA D DEB
1 05183U 70025JZ  25292.17989274  .00000831  00000-0  85956-3 0  9996
2 05183 100.0450 163.1030 0031822 185.4606 299.5219 13.78968221771435
Epoch: 2025-10-19T04:19Z
TLE epoch observation values (Epoch: 2025-10-19T04:19:02.732Z)
Latitude
54.18481°
Longitude
-95.42462°
Altitude
964.909 km
Speed
7.38 km/s
True Right ascension
23h 48m 56s
True Declination
54° 01' 34"
Sunlit
Object was in full shadow at epoch
Visualization orbit readout
Latitude
Unknown
Longitude
Unknown
Altitude
Unknown
Speed
Unknown
Apparent Right ascension
Unknown
Apparent Declination
Unknown
Sunlit
N/A
Visualization observer readout
Local Sidereal Time
18:34:03
Azimuth
Unknown
Elevation
Unknown
Doppler factor
Unknown
Orbital elements
Apogee altitude
988.196 km
Perigee altitude
941.463 km
Semi-major axis
7,342.967 km
Eccentricity
0.00318
Inclination
100.045°
RAAN
163.103°
Arg. of periapsis
185.4606°
True anomaly
299.20397°
Mean anomaly
299.5219°
Eccentric anomaly
299.363°
Mean motion
3.44934 °/min
Orbital period
104.37 mins
BSTAR
0.00085956
Loading maneuver chart data...
Computing Atmospheric mass density...

Documentation

Showing up to 5 results
|